Weather History for Slidell, LA

Change the Weather History Date:

Sunday, January 5, 2014

  Actual Average (KNEW) Record (KNEW)
Temperature  
Mean Temperature 54 °F 53 °F  
Max Temperature 66 °F 62 °F 78 °F (2009)
Min Temperature 39 °F 45 °F 27 °F (1994)
Degree Days  
Heating Degree Days 12 12  
Month to date heating degree days 60  
Since 1 July heating degree days 541  
Cooling Degree Days 0 1  
Month to date cooling degree days 5  
Year to date cooling degree days 5  
Growing Degree Days 4 (Base 50)    
Moisture  
Dew Point 49 °F    
Average Humidity 87    
Maximum Humidity 100    
Minimum Humidity 66    
Precipitation  
Precipitation 0.08 in 0.17 in 4.70 in (1998)
Month to date precipitation 0.82  
Year to date precipitation 0.82  
Snow  
Snow 0.00 in - - ()
Month to date snowfall  
Since 1 July snowfall  
Snow Depth -    
Sea Level Pressure  
Sea Level Pressure 29.97 in    
Wind  
Wind Speed 4 mph (WNW)    
Max Wind Speed 15 mph    
Max Gust Speed 30 mph    
Visibility 7 miles    
Events Fog , Rain    
T = Trace of Precipitation, MM = Missing Value Source: NWS Daily Summary

Daily Weather History Graph

Daily Weather History Graph

Search for Another Location

Airport:

Trip Planner

Search our weather history database for the weather conditions in past years. The results will help you decide how hot, cold, wet, or windy it might be!

Date:

Astronomy

Jan. 05, 2014 Rise Set
Actual Time 6:56 AM CST 5:12 PM CST
Civil Twilight 6:30 AM CST 5:39 PM CST
Nautical Twilight 6:00 AM CST 6:09 PM CST
Astronomical Twilight 5:31 AM CST 6:38 PM CST
Moon 10:00 AM CST (1/5) 10:16 PM CST (1/5)
Length of Visible Light 11h 08m
Length of Day
10h 16m
Waxing Crescent, 25% of the Moon is Illuminated
Jan 5
Waxing Crescent
Jan 7
First Quarter
Jan 15
Full
Jan 23
Last Quarter
Jan 30
New

Hourly Weather History & Observations

Time (CST) Temp. Windchill Dew Point Humidity Pressure Visibility Wind Dir Wind Speed Gust Speed Precip Events Conditions
12:25 AM 43.0 °F - 42.1 °F 97% 30.03 in 0.5 mi Calm Calm - N/A Fog Fog
12:33 AM 43.0 °F - 42.1 °F 97% 30.03 in 0.2 mi Calm Calm - N/A Fog Fog
12:53 AM 43.0 °F - 42.1 °F 97% 30.03 in 0.2 mi Calm Calm - N/A Fog Fog
1:10 AM 42.1 °F - 41.0 °F 96% 30.02 in 0.8 mi Calm Calm - N/A   Mist
1:41 AM 43.0 °F - 42.1 °F 97% 30.02 in 2.5 mi Calm Calm - N/A   Overcast
1:48 AM 42.8 °F - 42.8 °F 100% 30.02 in 6.0 mi Calm Calm - N/A   Overcast
1:53 AM 44.1 °F - 42.1 °F 93% 30.01 in 6.0 mi Calm Calm - N/A   Overcast
2:53 AM 48.9 °F - 48.0 °F 97% 29.99 in 5.0 mi East 4.6 mph - N/A   Overcast
3:53 AM 51.1 °F - 48.9 °F 92% 29.97 in 5.0 mi Calm Calm - N/A   Overcast
4:03 AM 51.1 °F - 50.0 °F 96% 29.97 in 4.0 mi East 3.5 mph - N/A   Overcast
4:12 AM 51.1 °F - 50.0 °F 96% 29.96 in 4.0 mi Variable 3.5 mph - N/A   Overcast
4:49 AM 51.8 °F - 51.8 °F 100% 29.96 in 5.0 mi Calm Calm - N/A   Overcast
4:53 AM 52.0 °F - 50.0 °F 93% 29.96 in 5.0 mi Calm Calm - N/A   Overcast
5:03 AM 52.0 °F - 50.0 °F 93% 29.97 in 5.0 mi Calm Calm - N/A   Overcast
5:50 AM 51.8 °F - 50.0 °F 94% 29.98 in 5.0 mi Calm Calm - N/A   Overcast
5:53 AM 52.0 °F - 50.0 °F 93% 29.99 in 5.0 mi Calm Calm - N/A   Overcast
6:53 AM 52.0 °F - 50.0 °F 93% 29.99 in 6.0 mi Calm Calm - N/A   Overcast
7:53 AM 53.1 °F - 51.1 °F 93% 29.99 in 6.0 mi Calm Calm - N/A   Overcast
8:53 AM 54.0 °F - 51.1 °F 90% 29.99 in 9.0 mi SE 3.5 mph - N/A   Overcast
9:53 AM 57.0 °F - 53.1 °F 87% 30.00 in 10.0 mi SSE 3.5 mph - N/A   Overcast
10:53 AM 60.1 °F - 54.0 °F 80% 29.97 in 10.0 mi SSE 6.9 mph - N/A   Overcast
11:53 AM 61.0 °F - 54.0 °F 78% 29.95 in 10.0 mi South 5.8 mph - N/A   Overcast
12:53 PM 62.1 °F - 54.0 °F 75% 29.91 in 10.0 mi South 5.8 mph - N/A   Overcast
1:53 PM 66.9 °F - 55.0 °F 66% 29.88 in 10.0 mi South 10.4 mph - N/A   Overcast
2:53 PM 66.0 °F - 55.9 °F 70% 29.87 in 10.0 mi South 8.1 mph - N/A   Overcast
3:53 PM 66.9 °F - 55.9 °F 68% 29.87 in 10.0 mi South 9.2 mph - N/A   Scattered Clouds
4:53 PM 66.0 °F - 57.9 °F 75% 29.85 in 10.0 mi SSW 8.1 mph - N/A   Mostly Cloudy
5:47 PM 64.4 °F - 60.8 °F 88% 29.87 in 2.0 mi West 11.5 mph 17.3 mph 0.07 in Rain Heavy Rain
5:53 PM 64.0 °F - 61.0 °F 90% 29.88 in 3.0 mi WSW 6.9 mph 17.3 mph 0.08 in Rain Rain
5:57 PM 63.0 °F - 61.0 °F 93% 29.89 in 6.0 mi West 8.1 mph - 0.00 in Rain Light Rain
6:11 PM 61.0 °F - 57.0 °F 87% 29.91 in 9.0 mi NW 15.0 mph 29.9 mph 0.00 in Rain Light Rain
6:18 PM 60.1 °F - 55.9 °F 86% 29.91 in 8.0 mi NW 15.0 mph 21.9 mph 0.00 in Rain Light Rain
6:42 PM 57.9 °F - 55.9 °F 93% 29.93 in 10.0 mi NNW 6.9 mph - 0.00 in   Overcast
6:53 PM 57.0 °F - 53.1 °F 87% 29.94 in 10.0 mi NW 11.5 mph 23.0 mph 0.00 in   Overcast
7:07 PM 55.9 °F - 52.0 °F 87% 29.95 in 10.0 mi NW 10.4 mph 23.0 mph N/A   Overcast
7:16 PM 55.0 °F - 48.0 °F 77% 29.96 in 10.0 mi NW 12.7 mph 20.7 mph N/A   Overcast
7:50 PM 51.8 °F - 46.4 °F 82% 29.99 in 10.0 mi NW 13.8 mph 21.9 mph N/A   Overcast
7:53 PM 51.1 °F - 45.0 °F 80% 29.99 in 10.0 mi NW 13.8 mph 25.3 mph N/A   Overcast
8:53 PM 48.0 °F - 42.1 °F 80% 30.02 in 10.0 mi NNW 9.2 mph 20.7 mph N/A   Overcast
9:10 PM 46.9 °F - 37.9 °F 71% 30.04 in 10.0 mi NNW 13.8 mph 24.2 mph N/A   Overcast
9:53 PM 44.1 °F 38.6 °F 36.0 °F 73% 30.07 in 10.0 mi NW 10.4 mph 19.6 mph N/A   Overcast
10:53 PM 41.0 °F 33.1 °F 33.1 °F 73% 30.10 in 10.0 mi NNW 15.0 mph 24.2 mph N/A   Overcast
11:53 PM 39.0 °F 31.0 °F 30.9 °F 73% 30.14 in 10.0 mi North 13.8 mph 25.3 mph N/A   Overcast